Home   Weather   Cairns   Past weeks

Flag for Australia Past Weather in Cairns, Queensland, Australia — Yesterday and Last 2 Weeks

Now
70 °F

Passing clouds.


Feels Like: 70 °F
Forecast: 67 / 79 °F
Wind: 9 mph from South

Location: Cairns Airport

Current Time: Jul 22, 2017 at 7:04:18 am

Latest Report: Jul 22, 2017 at 6:00 am


Visibility: N/A

Pressure: 30.04 "Hg

Humidity: 69%

Dew Point: 59 °F

Location of CairnsLocation

Past Weather in Cairns — Graph

°F

Cairns Temperature Yesterday

Maximum temperature yesterday: 79 °F (at 12:30 pm)
Minimum temperature yesterday: 64 °F (at 1:00 am)
Average temperature yesterday: 70 °F

High & Low Weather Summary for the Past Weeks

 TemperatureHumidityPressure
High84 °F (Jul 19, 2:30 pm)100% (Jul 8, 2:00 am)30.15 "Hg (Jul 8, 2:00 am)
Low61 °F (Jul 20, 1:00 am)30% (Jul 20, 11:00 am)29.89 "Hg (Jul 19, 2:30 pm)
Average72 °F74%30.04 "Hg
* Reported Jul 7 5:00 am — Jul 22 5:30 am, Cairns. Weather by CustomWeather, © 2017

Note: Actual official high and low records may vary slightly from our data, if they occured in-between our weather recording intervals... More about our weather records

Advertising

Cairns Weather History for the Previous 24 Hours

Scroll right to see more
 ConditionsComfort  
Time TempWeatherWind HumidityBarometerVisibility
5:30 am
Sat, Jul 22
70 °FPassing clouds.8 mph69%30.04 "HgN/A
5:00 am68 °FPassing clouds.10 mph73%30.04 "HgN/A
4:30 am68 °FPassing clouds.9 mph73%30.01 "HgN/A
4:00 am68 °FPassing clouds.9 mph73%30.01 "HgN/A
3:30 am68 °FPassing clouds.9 mph73%30.01 "HgN/A
3:00 am66 °FPassing clouds.8 mph78%30.01 "HgN/A
2:30 am68 °FPassing clouds.9 mph73%30.04 "HgN/A
2:00 am66 °FPassing clouds.9 mph83%30.04 "HgN/A
1:00 am66 °FClear.9 mph83%30.04 "Hg10 mi
12:00 am68 °FClear.8 mph78%30.04 "Hg10 mi
11:30 pm
Fri, Jul 21
68 °FClear.7 mph78%30.07 "Hg10 mi
11:00 pm66 °FClear.7 mph83%30.07 "Hg10 mi
10:30 pm68 °FClear.8 mph78%30.07 "Hg10 mi
10:00 pm68 °FClear.8 mph78%30.07 "Hg10 mi
9:30 pm70 °FClear.8 mph73%30.07 "Hg10 mi
9:00 pm70 °FPassing clouds.6 mph73%30.07 "HgN/A
8:30 pm70 °FPassing clouds.7 mph73%30.07 "HgN/A
8:00 pm70 °FPassing clouds.6 mph73%30.04 "HgN/A
7:30 pm70 °FPassing clouds.7 mph73%30.04 "HgN/A
7:00 pm70 °FPassing clouds.9 mph73%30.04 "HgN/A
6:30 pm70 °FPassing clouds.7 mph73%30.01 "HgN/A
6:00 pm72 °FPassing clouds.15 mph69%30.01 "HgN/A
5:30 pm73 °FScattered clouds.12 mph61%30.01 "HgN/A
5:00 pm75 °FScattered clouds.13 mph61%29.98 "HgN/A
4:30 pm75 °FScattered clouds.14 mph57%29.98 "HgN/A
4:00 pm75 °FScattered clouds.13 mph61%29.98 "HgN/A
3:30 pm77 °FScattered clouds.13 mph57%29.95 "HgN/A
3:00 pm77 °FScattered clouds.10 mph57%29.95 "HgN/A
2:30 pm77 °FScattered clouds.12 mph57%29.98 "HgN/A
2:00 pm77 °FScattered clouds.13 mph57%29.98 "HgN/A
1:30 pm77 °FScattered clouds.13 mph57%30.01 "HgN/A
1:00 pm77 °FPartly sunny.12 mph57%30.01 "HgN/A
12:30 pm79 °FPartly sunny.12 mph54%30.01 "HgN/A
12:00 pm77 °FPartly sunny.12 mph57%30.04 "HgN/A
11:30 am77 °FPassing clouds.10 mph61%30.04 "HgN/A
11:00 am75 °FScattered clouds.12 mph65%30.04 "HgN/A
10:00 am73 °FPassing clouds.7 mph69%30.07 "HgN/A
9:30 am72 °FPassing clouds.10 mph69%30.04 "HgN/A
9:00 am73 °FPassing clouds.9 mph69%30.04 "HgN/A
8:30 am72 °FPassing clouds.9 mph69%30.04 "HgN/A
8:00 am68 °FPassing clouds.10 mph78%30.04 "HgN/A
7:30 am66 °FScattered clouds.12 mph78%30.04 "HgN/A
7:00 am64 °FScattered clouds.12 mph83%30.01 "HgN/A
Weather by CustomWeather, © 2017

See weather overviewHow to use our weather pages